Flag for Seychelles Weather past 2 weeks in Victoria, Seychelles

Now
86 °F

Sprinkles. Partly sunny.


Feels Like: 99 °F
Forecast: 76 / 84 °F
Wind: 6 mph from South

Location: National Airport

Current Time: May 28, 2015 at 12:24:34 PM

Latest Report: May 28, 2015 at 12:00 PM


Visibility: N/A

Pressure: 29.86 "Hg

Humidity: 79%

Dew point: 79 °F

Location of VictoriaLocation

Historic Weather in Victoria — Graph

°F

Victoria temperature yesterday

Maximum temperature yesterday: 90 °F (at 10:00 AM)
Minimum temperature yesterday: 81 °F (at 3:00 AM)
Average temperature yesterday: 84 °F

Past Weeks' High & Low Weather Summary

 TemperatureHumidityPressure
High90 °F (May 14, 1:00 PM)100% (May 16, 1:00 AM)29.92 "Hg (May 16, 1:00 AM)
Low75 °F (May 22, 12:00 PM)62% (May 13, 3:00 PM)29.74 "Hg (May 17, 2:00 PM)
Average84 °F82%29.84 "Hg
* Reported May 13 11:00 AM — May 28 11:00 AM, Victoria, Weather by CustomWeather, © 2015

Note: Actual official high and low records may vary slightly from our data, if they occured in-between our weather recording intervals... More about our weather records

Advertising

Victoria weather history for previous 24 hours

 ConditionsComfort  
Time TempWeatherWind HumidityBarometerVisibility
11:00 AM
Thu, May 28
88 °FScattered clouds.14 mph75%29.89 "HgN/A
10:00 AM88 °FPassing clouds.12 mph75%29.92 "HgN/A
9:00 AM88 °FPassing clouds.No wind70%29.89 "HgN/A
8:00 AM84 °FPassing clouds.No wind79%29.89 "HgN/A
7:00 AM79 °FPassing clouds.2 mph89%29.86 "HgN/A
6:00 AM79 °FPassing clouds.2 mph89%29.83 "HgN/A
5:00 AM79 °FPassing clouds.2 mph89%29.83 "HgN/A
4:00 AM79 °FPassing clouds.2 mph89%29.80 "HgN/A
3:00 AM79 °FPassing clouds.2 mph89%29.83 "HgN/A
2:00 AM82 °FPassing clouds.6 mph84%29.83 "HgN/A
1:00 AM82 °FPassing clouds.8 mph84%29.86 "HgN/A
12:00 AM82 °FPassing clouds.8 mph84%29.89 "HgN/A
11:00 PM
Wed, May 27
81 °FPassing clouds.9 mph89%29.89 "HgN/A
10:00 PM84 °FPassing clouds.6 mph79%29.92 "HgN/A
9:00 PM82 °FPassing clouds.9 mph84%29.89 "HgN/A
8:00 PM82 °FSprinkles. Passing clouds.8 mph84%29.89 "HgN/A
7:00 PM84 °FPassing clouds.6 mph79%29.89 "HgN/A
6:00 PM84 °FPassing clouds.12 mph79%29.86 "HgN/A
5:00 PM86 °FPassing clouds.8 mph75%29.83 "HgN/A
4:00 PM86 °FBroken clouds.7 mph75%29.83 "HgN/A
3:00 PM88 °FScattered clouds.8 mph70%29.83 "HgN/A
2:00 PM88 °FPartly sunny.8 mph75%29.86 "HgN/A
1:00 PM88 °FPartly sunny.12 mph75%29.86 "HgN/A
12:00 PM88 °FScattered clouds.12 mph75%29.89 "HgN/A
Weather by CustomWeather, © 2015

See weather overviewHow to use our weather pages